Location: Augsburg
(48.3836°N, 10.8929°E)
Time: 02:39:27
(UTC+01:00)

ISS - Pass Details

Date: 02 December 2021
Orbit: 413 x 422 km, 51.6° (Epoch: 24 January)

Event Time Altitude Azimuth Distance (km) Brightness Sun altitude
Rises 19:25:20 0° 291° (WNW) 2,383 1.1 -29.3°
Reaches altitude 10° 19:27:31 10° 284° (WNW) 1,513 -0.1 -29.7°
Enters shadow 19:28:21 16° 278° (W) 1,197 -0.7 -29.8°
